EW8876 Weather Reports


time (UTC)temp
C
wind
direction
speed
KPH
gust
KPH
rain 1hr
cm
rain 24hr
cm
rain mn
cm
humidity
%
barometer
mb
20260510021126 27 140 0.0 0.0 0.00 0.00 0.00 74 1010.5
20260510020620 27 137 1.6 3.2 0.00 0.00 0.00 73 1010.1
20260510020115 27 150 0.0 0.0 0.00 0.00 0.00 72 1010.2
20260510015611 27 183 0.0 3.2 0.00 0.00 0.00 71 1010.2
20260510015108 27 198 4.8 4.8 0.00 0.00 0.00 70 1009.9
20260510014603 27 134 0.0 0.0 0.00 0.00 0.00 70 1010.1
20260510014101 27 14 1.6 3.2 0.00 0.00 0.00 69 1009.8
20260510013555 28 139 0.0 0.0 0.00 0.00 0.00 69 1009.9
20260510013051 28 122 3.2 4.8 0.00 0.00 0.00 69 1009.7
20260510012545 28 143 0.0 3.2 0.00 0.00 0.00 68 1010.0
20260510012042 28 191 0.0 3.2 0.00 0.00 0.00 68 1009.7
20260510011541 28 144 0.0 0.0 0.00 0.00 0.00 67 1009.8
20260510011037 28 96 1.6 3.2 0.00 0.00 0.00 66 1009.7
20260510010534 28 125 1.6 3.2 0.00 0.00 0.00 65 1010.0
20260510010032 28 130 4.8 4.8 0.00 0.00 0.00 65 1009.7
20260510005527 28 268 0.0 0.0 0.00 0.00 0.00 64 1009.7
20260510005025 28 125 0.0 0.0 0.00 0.00 0.00 63 1009.7
20260510004522 29 108 0.0 3.2 0.00 0.00 0.00 62 1009.7
20260510004020 29 120 4.8 4.8 0.00 0.00 0.00 60 1009.7
20260510003516 29 122 0.0 0.0 0.00 0.00 0.00 60 1009.6
20260510003012 29 137 0.0 3.2 0.00 0.00 0.00 59 1009.4
20260510002508 29 72 1.6 3.2 0.00 0.00 0.00 59 1009.4
20260510002005 29 149 0.0 0.0 0.00 0.00 0.00 59 1009.4
20260510001502 30 96 3.2 4.8 0.00 0.00 0.00 57 1009.3
20260510001000 30 72 1.6 3.2 0.00 0.00 0.00 56 1009.3
20260510000456 30 43 3.2 4.8 0.00 0.00 0.00 55 1009.3
20260509235952 30 100 3.2 3.2 0.00 0.00 0.00 56 1009.4
20260509235449 30 83 1.6 3.2 0.00 0.00 0.00 57 1009.2
20260509234945 30 61 1.6 4.8 0.00 0.00 0.00 56 1009.3
20260509234442 30 102 0.0 0.0 0.00 0.00 0.00 55 1009.0
20260509233940 30 100 1.6 3.2 0.00 0.00 0.00 54 1009.0
20260509233437 30 81 1.6 3.2 0.00 0.00 0.00 53 1009.1
20260509232933 30 131 0.0 3.2 0.00 0.00 0.00 53 1009.0
20260509232431 30 148 1.6 3.2 0.00 0.00 0.00 52 1009.2
20260509231927 31 195 3.2 3.2 0.00 0.00 0.00 51 1008.9
20260509231424 31 128 0.0 0.0 0.00 0.00 0.00 52 1009.0
20260509230922 30 150 0.0 3.2 0.00 0.00 0.00 52 1008.9
20260509230418 30 99 0.0 0.0 0.00 0.00 0.00 51 1009.1
20260509225914 31 195 0.0 3.2 0.00 0.00 0.00 50 1009.1
20260509225411 31 63 6.4 8.0 0.00 0.00 0.00 49 1008.9
20260509224907 31 220 3.2 4.8 0.00 0.00 0.00 47 1009.2
20260509224403 32 48 1.6 3.2 0.00 0.00 0.00 47 1009.3
20260509223900 32 91 0.0 3.2 0.00 0.00 0.00 45 1009.1
20260509223356 31 140 1.6 3.2 0.00 0.00 0.00 47 1009.2
20260509222854 31 145 1.6 3.2 0.00 0.00 0.00 46 1009.0
20260509222349 32 146 3.2 4.8 0.00 0.00 0.00 46 1008.9
20260509221844 32 53 8.0 11.3 0.00 0.00 0.00 47 1009.1
20260509221342 32 70 8.0 14.5 0.00 0.00 0.00 46 1009.0
20260509220837 32 137 3.2 4.8 0.00 0.00 0.00 48 1009.0
20260509220333 32 123 0.0 3.2 0.00 0.00 0.00 52 1008.9
20260509215829 32 117 4.8 8.0 0.00 0.00 0.00 49 1009.0
20260509215326 32 82 1.6 4.8 0.00 0.00 0.00 50 1009.1
20260509214823 31 79 4.8 4.8 0.00 0.00 0.00 51 1009.2
20260509214320 31 56 3.2 4.8 0.00 0.00 0.00 50 1009.1
20260509213818 32 95 3.2 3.2 0.00 0.00 0.00 49 1009.3
20260509213312 31 75 3.2 4.8 0.00 0.00 0.00 48 1009.2
20260509212810 31 157 0.0 3.2 0.00 0.00 0.00 50 1009.4
20260509212308 31 218 1.6 3.2 0.00 0.00 0.00 50 1009.4
20260509211803 31 56 14.5 19.3 0.00 0.00 0.00 48 1009.2
20260509211259 31 113 4.8 4.8 0.00 0.00 0.00 51 1009.5
20260509210756 31 160 12.9 19.3 0.00 0.00 0.00 50 1009.6
20260509210254 31 100 3.2 4.8 0.00 0.00 0.00 50 1009.7
20260509205753 31 104 6.4 11.3 0.00 0.00 0.00 52 1009.6
20260509205248 31 321 4.8 8.0 0.00 0.00 0.00 52 1009.6
20260509204744 31 76 0.0 3.2 0.00 0.00 0.00 51 1009.8
20260509204241 31 1 1.6 3.2 0.00 0.00 0.00 47 1009.8
20260509203737 30 113 4.8 8.0 0.00 0.00 0.00 50 1009.8
20260509203235 31 95 9.7 14.5 0.00 0.00 0.00 50 1009.8
20260509202730 31 14 0.0 3.2 0.00 0.00 0.00 52 1010.0
20260509202226 30 68 3.2 4.8 0.00 0.00 0.00 47 1010.1
20260509201721 30 221 3.2 4.8 0.00 0.00 0.00 48 1010.6
20260509201218 30 316 1.6 3.2 0.00 0.00 0.00 47 1010.5
20260509200715 30 159 4.8 4.8 0.00 0.00 0.00 48 1010.8
20260509200210 29 90 8.0 11.3 0.00 0.00 0.00 48 1010.9
20260509195705 30 69 3.2 4.8 0.00 0.00 0.00 54 1011.0
20260509195200 31 100 8.0 11.3 0.00 0.00 0.00 54 1011.0
20260509194655 32 65 3.2 4.8 0.00 0.00 0.00 56 1010.5
20260509194152 31 136 0.0 0.0 0.00 0.00 0.00 61 1010.7
20260509193648 32 136 0.0 0.0 0.00 0.00 0.00 56 1010.3
20260509193144 33 160 0.0 0.0 0.00 0.00 0.00 54 1010.7
20260509192641 32 199 3.2 3.2 0.00 0.00 0.00 54 1010.5
20260509192136 32 178 3.2 4.8 0.00 0.00 0.00 58 1010.5
20260509191635 32 160 0.0 3.2 0.00 0.00 0.00 55 1010.5
20260509191132 32 152 0.0 0.0 0.00 0.00 0.00 64 1010.6
20260509190629 31 122 4.8 4.8 0.00 0.00 0.00 62 1010.8
20260509190126 30 161 0.0 0.0 0.00 0.00 0.00 65 1010.7
20260509185624 30 138 0.0 0.0 0.00 0.00 0.00 66 1010.9
20260509185120 31 136 0.0 0.0 0.00 0.00 0.00 63 1010.9
20260509184618 31 142 0.0 0.0 0.00 0.00 0.00 63 1011.0
20260509184115 31 110 0.0 0.0 0.00 0.00 0.00 63 1011.0
20260509183610 31 135 0.0 0.0 0.00 0.00 0.00 64 1011.2
20260509183106 31 113 4.8 4.8 0.00 0.00 0.00 61 1011.2
20260509182602 31 149 1.6 3.2 0.00 0.00 0.00 62 1011.3
20260509182059 32 188 3.2 4.8 0.00 0.00 0.00 62 1011.2
20260509181558 32 142 0.0 0.0 0.00 0.00 0.00 65 1011.2
20260509181054 31 155 3.2 3.2 0.00 0.00 0.00 64 1011.5
20260509180550 31 125 0.0 0.0 0.00 0.00 0.00 66 1011.6
20260509180048 31 179 4.8 8.0 0.00 0.00 0.00 65 1011.6
20260509175543 30 147 0.0 0.0 0.00 0.00 0.00 67 1011.5
20260509175041 30 146 0.0 0.0 0.00 0.00 0.00 69 1011.4
20260509174537 30 185 6.4 8.0 0.00 0.00 0.00 69 1011.6
20260509174032 30 155 0.0 0.0 0.00 0.00 0.00 71 1011.7
20260509173526 30 134 0.0 0.0 0.00 0.00 0.00 69 1011.8
20260509173023 31 149 3.2 3.2 0.00 0.00 0.00 71 1012.1
20260509172520 31 70 0.0 0.0 0.00 0.00 0.00 69 1012.1
20260509172016 30 152 0.0 3.2 0.00 0.00 0.00 73 1012.2
20260509171512 31 122 0.0 0.0 0.00 0.00 0.00 71 1012.2
20260509171009 30 162 3.2 3.2 0.00 0.00 0.00 72 1012.4
20260509170504 30 205 1.6 4.8 0.00 0.00 0.00 72 1012.3
20260509170000 30 136 0.0 0.0 0.00 0.00 0.00 73 1012.3
20260509165459 30 99 3.2 4.8 0.00 0.00 0.00 72 1012.1
20260509164955 30 165 0.0 0.0 0.00 0.00 0.00 71 1012.0
20260509164451 30 82 0.0 3.2 0.00 0.00 0.00 75 1012.2
20260509163947 30 152 0.0 3.2 0.00 0.00 0.00 74 1012.2
20260509163445 28 131 1.6 3.2 0.00 0.00 0.00 77 1012.5
20260509162944 28 288 3.2 4.8 0.00 0.00 0.00 78 1012.3
20260509162443 28 182 6.4 11.3 0.00 0.00 0.00 79 1012.1
20260509161938 28 138 0.0 0.0 0.00 0.00 0.00 81 1012.3
20260509161435 27 191 1.6 3.2 0.00 0.00 0.00 81 1012.3
20260509160930 27 140 3.2 4.8 0.00 0.00 0.00 83 1012.2
20260509160426 26 133 4.8 4.8 0.00 0.00 0.00 85 1012.3
20260509155921 25 228 4.8 4.8 0.00 0.00 0.00 86 1012.5
20260509155418 25 199 3.2 4.8 0.00 0.00 0.00 87 1012.5
20260509154915 25 167 6.4 8.0 0.00 0.00 0.00 88 1012.5
20260509154411 25 183 4.8 4.8 0.00 0.00 0.00 89 1012.6
20260509153908 25 141 0.0 0.0 0.00 0.00 0.00 88 1012.5
20260509153405 25 199 0.0 3.2 0.00 0.00 0.00 88 1012.5
20260509152902 26 168 3.2 4.8 0.00 0.00 0.00 87 1012.1
20260509152358 26 190 1.6 4.8 0.00 0.00 0.00 87 1012.1
20260509151856 26 157 1.6 3.2 0.00 0.00 0.00 86 1011.8
20260509151351 26 189 3.2 4.8 0.00 0.00 0.00 85 1011.9
20260509150850 25 107 0.0 3.2 0.00 0.00 0.00 88 1011.8
20260509150347 26 119 3.2 4.8 0.00 0.00 0.00 86 1011.7
20260509145844 26 130 0.0 0.0 0.00 0.00 0.00 86 1011.7
20260509145339 26 189 3.2 4.8 0.00 0.00 0.00 86 1011.6
20260509144835 26 182 4.8 4.8 0.00 0.00 0.00 88 1011.8
20260509144332 25 199 4.8 8.0 0.00 0.00 0.00 88 1012.0
20260509143829 25 196 6.4 8.0 0.00 0.00 0.00 88 1011.7
20260509143327 26 86 3.2 3.2 0.00 0.00 0.00 88 1011.7
20260509142823 26 116 8.0 11.3 0.00 0.00 0.00 86 1011.7
20260509142319 26 193 1.6 4.8 0.00 0.00 0.00 87 1011.4
20260509141815 26 185 1.6 3.2 0.00 0.00 0.00 87 1011.2
20260509141312 25 160 0.0 3.2 0.00 0.00 0.00 89 1011.2
20260509140808 25 153 0.0 3.2 0.00 0.00 0.00 91 1011.0
20260509140306 25 191 1.6 4.8 0.00 0.00 0.00 91 1011.0
20260509135803 24 172 0.0 3.2 0.00 0.00 0.00 92 1011.0
20260509135301 24 173 4.8 4.8 0.00 0.00 0.00 93 1011.0
20260509134758 24 52 4.8 4.8 0.00 0.00 0.00 93 1010.9
20260509134255 24 151 0.0 3.2 0.00 0.00 0.00 94 1011.1
20260509133752 24 161 3.2 4.8 0.00 0.00 0.00 95 1011.2
20260509133248 23 136 4.8 8.0 0.00 0.00 0.00 97 1011.1
20260509132747 23 146 1.6 3.2 0.00 0.00 0.00 99 1011.3
20260509132246 22 132 0.0 0.0 0.00 0.00 0.00 99 1011.4
20260509131742 22 180 0.0 0.0 0.00 0.00 0.00 99 1011.0
20260509131239 22 156 0.0 0.0 0.00 0.00 0.00 99 1011.5
20260509130735 22 182 4.8 4.8 0.00 0.00 0.00 99 1011.7
20260509130231 22 135 0.0 0.0 0.00 0.00 0.00 99 1011.6
20260509125727 22 172 0.0 0.0 0.00 0.00 0.00 99 1011.7
20260509125225 21 136 0.0 0.0 0.00 0.00 0.00 99 1011.9
20260509124721 21 145 0.0 0.0 0.00 0.00 0.00 99 1011.9
20260509124217 21 143 0.0 0.0 0.00 0.00 0.00 99 1011.7
20260509123716 21 143 0.0 0.0 0.00 0.00 0.00 99 1011.8
20260509123213 21 138 0.0 0.0 0.00 0.00 0.00 99 1011.8
20260509122708 21 140 0.0 0.0 0.00 0.00 0.00 99 1011.6
20260509122205 21 138 0.0 0.0 0.00 0.00 0.00 99 1011.5
20260509121702 21 141 0.0 0.0 0.00 0.00 0.00 99 1011.5
20260509121200 21 148 0.0 0.0 0.00 0.00 0.00 99 1011.5
20260509120658 21 146 0.0 0.0 0.00 0.00 0.00 99 1011.8
20260509120155 21 141 0.0 0.0 0.00 0.00 0.00 99 1011.5
20260509115653 21 140 0.0 0.0 0.00 0.00 0.00 99 1011.7
20260509115150 21 152 0.0 0.0 0.00 0.00 0.00 99 1011.5
20260509114648 21 114 0.0 0.0 0.00 0.00 0.00 99 1011.8
20260509114147 21 138 0.0 0.0 0.00 0.00 0.00 99 1012.1
20260509113645 21 131 0.0 0.0 0.00 0.00 0.00 99 1011.8
20260509113141 21 144 0.0 0.0 0.00 0.00 0.00 99 1012.2
20260509112638 21 135 0.0 0.0 0.00 0.00 0.00 99 1012.4
20260509112135 21 136 0.0 0.0 0.00 0.00 0.00 99 1012.3
20260509111632 21 136 0.0 0.0 0.00 0.00 0.00 99 1012.6
20260509111129 22 136 0.0 0.0 0.00 0.00 0.00 99 1012.7
20260509110626 22 139 0.0 0.0 0.00 0.00 0.00 99 1012.7
20260509110123 22 119 0.0 0.0 0.00 0.00 0.00 99 1012.8
20260509105622 22 142 0.0 0.0 0.00 0.00 0.00 99 1012.8
20260509105119 22 137 0.0 0.0 0.00 0.00 0.00 99 1012.8
20260509104616 22 129 0.0 0.0 0.00 0.00 0.00 99 1012.6
20260509104112 22 135 0.0 0.0 0.00 0.00 0.00 99 1012.7
20260509103610 22 133 0.0 0.0 0.00 0.00 0.00 99 1012.9
20260509103108 22 136 0.0 0.0 0.00 0.00 0.00 99 1012.9
20260509102605 22 137 0.0 0.0 0.00 0.00 0.00 99 1012.7
20260509102102 22 139 0.0 0.0 0.00 0.00 0.00 99 1012.8
20260509101558 22 133 0.0 0.0 0.00 0.00 0.00 99 1012.5
20260509101055 22 137 0.0 0.0 0.00 0.00 0.00 99 1012.4
20260509100552 22 137 0.0 0.0 0.00 0.00 0.00 99 1012.4
20260509100050 22 31 0.0 0.0 0.00 0.00 0.00 99 1012.2
20260509095546 22 132 0.0 0.0 0.00 0.00 0.00 99 1012.1
20260509095044 22 126 0.0 0.0 0.00 0.00 0.00 99 1012.0
20260509094539 22 133 0.0 0.0 0.00 0.00 0.00 99 1011.6
20260509094037 22 129 0.0 0.0 0.00 0.00 0.00 99 1011.4
20260509093535 22 138 0.0 0.0 0.00 0.00 0.00 99 1011.2
20260509093032 22 133 0.0 0.0 0.00 0.00 0.00 99 1011.1
20260509092530 22 155 0.0 0.0 0.00 0.00 0.00 99 1011.1
20260509092029 22 137 0.0 0.0 0.00 0.00 0.00 99 1011.1
20260509091526 22 139 0.0 0.0 0.00 0.00 0.00 99 1011.2
20260509091022 22 136 0.0 0.0 0.00 0.00 0.00 99 1011.1
20260509090520 22 138 0.0 0.0 0.00 0.00 0.00 99 1011.2
20260509090017 22 136 0.0 0.0 0.00 0.00 0.00 99 1011.0
20260509085514 22 137 0.0 0.0 0.00 0.00 0.00 99 1011.1
20260509085010 22 135 0.0 0.0 0.00 0.00 0.00 99 1011.2
20260509084507 22 116 0.0 0.0 0.00 0.00 0.00 99 1011.3
20260509084004 22 128 0.0 0.0 0.00 0.00 0.00 99 1011.4
20260509083502 22 104 0.0 0.0 0.00 0.00 0.00 99 1011.4
20260509082958 22 135 0.0 0.0 0.00 0.00 0.00 99 1011.4
20260509082456 22 134 0.0 0.0 0.00 0.00 0.00 99 1011.7
20260509081953 22 140 0.0 0.0 0.00 0.00 0.00 99 1011.9
20260509081450 22 128 0.0 0.0 0.00 0.00 0.00 99 1011.6
20260509080946 22 146 0.0 0.0 0.00 0.00 0.00 99 1011.7
20260509080445 22 47 4.8 4.8 0.00 0.00 0.00 99 1011.7
20260509075943 22 130 0.0 0.0 0.00 0.00 0.00 99 1011.7
20260509075439 22 105 0.0 0.0 0.00 0.00 0.00 99 1011.5
20260509074937 22 136 0.0 0.0 0.00 0.00 0.00 99 1011.7
20260509074435 22 142 0.0 0.0 0.00 0.00 0.00 99 1011.8
20260509073931 22 136 0.0 0.0 0.00 0.00 0.00 99 1011.8
20260509073427 22 145 0.0 0.0 0.00 0.00 0.00 99 1011.7
20260509072918 22 133 0.0 0.0 0.00 0.00 0.00 98 1011.9
20260509072415 22 143 0.0 0.0 0.00 0.00 0.00 98 1012.0
20260509071911 22 140 0.0 0.0 0.00 0.00 0.00 98 1012.0
20260509071409 22 138 0.0 0.0 0.00 0.00 0.00 98 1011.8
20260509070906 22 132 0.0 0.0 0.00 0.00 0.00 98 1012.2
20260509070403 22 154 0.0 0.0 0.00 0.00 0.00 98 1012.0
20260509065858 22 137 0.0 0.0 0.00 0.00 0.00 98 1012.1
20260509065355 22 159 0.0 0.0 0.00 0.00 0.00 98 1011.8
20260509064851 22 132 0.0 0.0 0.00 0.00 0.00 98 1011.6
20260509064349 22 177 0.0 0.0 0.00 0.00 0.00 98 1011.8
20260509063846 22 112 0.0 0.0 0.00 0.00 0.00 98 1011.5
20260509063342 22 143 1.6 3.2 0.00 0.00 0.00 98 1011.7
20260509062839 22 91 3.2 4.8 0.00 0.00 0.00 97 1012.0
20260509062336 22 150 1.6 3.2 0.00 0.00 0.00 97 1012.1
20260509061833 22 141 0.0 0.0 0.00 0.00 0.00 97 1011.9
20260509061332 22 156 3.2 4.8 0.00 0.00 0.00 97 1011.5
20260509060828 22 117 3.2 4.8 0.00 0.00 0.00 97 1011.4
20260509060325 22 163 0.0 3.2 0.00 0.00 0.00 96 1011.3
20260509055821 22 152 1.6 3.2 0.00 0.00 0.00 96 1011.2
20260509055316 22 117 0.0 0.0 0.00 0.00 0.00 96 1011.2
20260509054814 22 154 3.2 4.8 0.00 0.00 0.00 96 1011.4
20260509054310 22 142 3.2 4.8 0.00 0.00 0.00 96 1011.4
20260509053809 22 156 1.6 4.8 0.00 0.00 0.00 96 1011.2
20260509053305 22 117 3.2 4.8 0.00 0.00 0.00 96 1011.0
20260509052803 22 147 3.2 4.8 0.00 0.00 0.00 96 1010.7
20260509052301 22 194 0.0 0.0 0.00 0.00 0.00 96 1010.5
20260509051758 22 132 0.0 3.2 0.00 0.00 0.00 96 1010.7
20260509051256 22 147 0.0 0.0 0.00 0.00 0.00 96 1010.5
20260509050752 22 132 0.0 0.0 0.00 0.00 0.00 96 1010.5
20260509050249 22 187 1.6 4.8 0.00 0.00 0.00 96 1010.6
20260509045746 22 179 1.6 3.2 0.00 0.00 0.00 95 1010.3
20260509045243 22 109 1.6 3.2 0.00 0.00 0.00 95 1010.5
20260509044740 22 176 0.0 0.0 0.00 0.00 0.00 95 1010.6
20260509044238 22 168 1.6 3.2 0.00 0.00 0.00 95 1010.6
20260509043734 22 148 0.0 0.0 0.00 0.00 0.00 95 1010.5
20260509043230 22 155 0.0 0.0 0.00 0.00 0.00 95 1010.8
20260509042726 22 151 0.0 0.0 0.00 0.00 0.00 95 1010.7
20260509042222 22 209 3.2 4.8 0.00 0.00 0.00 95 1011.1
20260509041714 22 173 0.0 0.0 0.00 0.00 0.00 94 1010.9
20260509041211 22 149 0.0 0.0 0.00 0.00 0.00 94 1011.1
20260509040709 22 149 0.0 0.0 0.00 0.00 0.00 94 1011.0
20260509040206 22 142 0.0 0.0 0.00 0.00 0.00 94 1011.0
20260509035703 22 136 0.0 0.0 0.00 0.00 0.00 94 1011.1
20260509035159 22 139 0.0 0.0 0.00 0.00 0.00 94 1010.9
20260509034657 22 156 4.8 4.8 0.00 0.00 0.00 93 1010.9
20260509034154 22 177 3.2 4.8 0.00 0.00 0.00 93 1010.7
20260509033651 22 169 6.4 11.3 0.00 0.00 0.00 94 1010.9
20260509033148 22 166 3.2 4.8 0.00 0.00 0.00 94 1010.8
20260509032645 22 137 1.6 4.8 0.00 0.00 0.00 94 1010.7
20260509032142 22 167 0.0 0.0 0.00 0.00 0.00 94 1010.7
20260509031640 22 169 0.0 0.0 0.00 0.00 0.00 93 1010.7
20260509031137 22 133 0.0 0.0 0.00 0.00 0.00 93 1010.6
20260509030635 22 133 0.0 0.0 0.00 0.00 0.00 92 1010.5
20260509030132 23 148 1.6 3.2 0.00 0.00 0.00 92 1010.7
20260509025628 23 140 0.0 3.2 0.00 0.00 0.00 92 1010.7
20260509025124 23 143 0.0 3.2 0.00 0.00 0.00 92 1010.9
20260509024619 23 165 0.0 0.0 0.00 0.00 0.00 91 1010.6
20260509024115 23 142 0.0 0.0 0.00 0.00 0.00 91 1010.5
20260509023614 23 140 0.0 0.0 0.00 0.00 0.00 91 1010.2
20260509023110 23 184 0.0 0.0 0.00 0.00 0.00 90 1010.5
20260509022607 23 177 1.6 3.2 0.00 0.00 0.00 90 1010.3
20260509022105 23 160 4.8 8.0 0.00 0.00 0.00 89 1010.0
20260509021601 23 153 0.0 0.0 0.00 0.00 0.00 89 1010.2